sat.trackr.live / text

‹ back to catalog

STARLINK-4094

NORAD 53147 · 2022-083R

PAYLOAD ACTIVE UNKNOWN

§ Identity

Operator
Country
US
Launch date
2022-07-17
Launch site
AFETR
Launch vehicle
Mass (kg)
RCS (m²)

Purposes: comms

External: N2YO · Heavens-Above · Gunter

§ Orbital elements

Epoch: 2026-05-25T04:53:47.817888Z

Period
95.44 min
Inclination
53.2123°
Eccentricity
0.0000971
Mean motion
15.08837665 rev/d
Perigee alt
539.1 km
Apogee alt
540.4 km
Semi-major
6,917.9 km
B*
1.7382e-5
RAAN
190.6339°
Arg perigee
73.2962°
Mean anomaly
286.8136°
Rev number
21,342

§ Raw data

STARLINK-40941 53147U 22083R   26145.20402567 -.00000011  00000+0  17382-4 0  99962 53147  53.2123 190.6339 0000971  73.2962 286.8136 15.08837665213420

JSON: /api/v1/satellites/53147 · /tle

For live sub-satellite position, see the globe view (requires WebGL).

§ Visibility from observer

Set your observer location to see the next 7 days of passes ≥ 10°. The values pass through the URL so the page stays shareable.

No JS? Fill the form by hand. The geolocation button needs JavaScript.